Hutchinson, KS

8:41 PM CDT on April 27, 2017 (GMT -0500)
Hutchinson Municipal

Weather History for KHUT - November, 2012

Change the Weather History Date:

Wednesday, November 21, 2012

  Actual Average Record
Temperature  
Mean Temperature 56 °F -  
Max Temperature 73 °F 51 °F 73 °F (2012)
Min Temperature 39 °F 28 °F 12 °F (2008)
Degree Days  
Heating Degree Days 9    
Growing Degree Days 6 (Base 50)    
Moisture  
Dew Point 41 °F    
Average Humidity 58    
Maximum Humidity 83    
Minimum Humidity 28    
Precipitation  
Precipitation 0.00 in - - ()
Sea Level Pressure  
Sea Level Pressure 30.06 in    
Wind  
Wind Speed 10 mph (South)    
Max Wind Speed 29 mph    
Max Gust Speed 39 mph    
Visibility 10 miles    
Events      
Averages and records for this station are not official NWS values.
T = Trace of Precipitation, MM = Missing Value Source: NWS Daily Summary

Daily Weather History Graph

Daily Weather History Graph

Search for Another Location

Airport or City:

Trip Planner

Search our weather history database for the weather conditions in past years. The results will help you decide how hot, cold, wet, or windy it might be!

Date:

Astronomy

Nov. 21, 2012 Rise Set
Actual Time 7:19 AM CST 5:15 PM CST
Civil Twilight 6:50 AM CST 5:43 PM CST
Nautical Twilight 6:18 AM CST 6:16 PM CST
Astronomical Twilight 5:47 AM CST 6:47 PM CST
Moon 1:27 PM CST (11/21) 12:45 AM CST (11/21)
Length of Visible Light 10h 53m
Length of Day
9h 56m
First Quarter, 62% of the Moon is Illuminated
Nov 21
First Quarter
Nov 28
Full
Dec 6
Last Quarter
Dec 13
New
Dec 19
First Quarter

Hourly Weather History & Observations

Time (CST) Temp. Windchill Dew Point Humidity Pressure Visibility Wind Dir Wind Speed Gust Speed Precip Events Conditions
12:52 AM 41.0 °F - 35.1 °F 79% 30.18 in 10.0 mi Calm Calm - N/A   Clear
1:52 AM 41.0 °F 38.0 °F 36.0 °F 82% 30.17 in 10.0 mi SE 4.6 mph - N/A   Clear
2:52 AM 43.0 °F 40.3 °F 36.0 °F 76% 30.16 in 10.0 mi SE 4.6 mph - N/A   Clear
3:52 AM 39.9 °F 35.1 °F 35.1 °F 83% 30.16 in 10.0 mi SSE 6.9 mph - N/A   Clear
4:52 AM 42.1 °F - 36.0 °F 79% 30.16 in 10.0 mi Calm Calm - N/A   Clear
5:52 AM 42.1 °F 37.1 °F 37.0 °F 82% 30.17 in 10.0 mi SSE 8.1 mph - N/A   Clear
6:52 AM 43.0 °F 38.8 °F 37.0 °F 80% 30.17 in 10.0 mi SSE 6.9 mph - N/A   Clear
7:52 AM 45.0 °F 41.2 °F 39.0 °F 80% 30.18 in 10.0 mi SSE 6.9 mph - N/A   Clear
8:52 AM 53.1 °F - 43.0 °F 69% 30.18 in 10.0 mi South 10.4 mph - N/A   Clear
9:52 AM 59.0 °F - 44.1 °F 58% 30.17 in 10.0 mi South 19.6 mph 26.5 mph N/A   Clear
10:52 AM 63.0 °F - 46.0 °F 54% 30.14 in 10.0 mi South 20.7 mph 25.3 mph N/A   Clear
11:52 AM 66.9 °F - 46.0 °F 47% 30.11 in 10.0 mi South 21.9 mph 28.8 mph N/A   Clear
12:52 PM 72.0 °F - 46.0 °F 40% 30.05 in 10.0 mi South 25.3 mph 34.5 mph N/A   Clear
1:52 PM 73.0 °F - 43.0 °F 34% 30.01 in 10.0 mi SSW 24.2 mph 35.7 mph N/A   Clear
2:52 PM 73.9 °F - 44.1 °F 34% 29.99 in 10.0 mi South 28.8 mph 39.1 mph N/A   Clear
3:52 PM 73.9 °F - 39.0 °F 28% 29.96 in 10.0 mi SSW 19.6 mph 34.5 mph N/A   Clear
4:52 PM 70.0 °F - 39.9 °F 33% 29.96 in 10.0 mi South 18.4 mph - N/A   Clear
5:52 PM 66.0 °F - 39.9 °F 38% 29.96 in 10.0 mi South 15.0 mph - N/A   Clear
6:52 PM 64.0 °F - 45.0 °F 50% 29.95 in 10.0 mi South 13.8 mph - N/A   Clear
7:52 PM 64.0 °F - 43.0 °F 46% 29.95 in 10.0 mi South 17.3 mph - N/A   Clear
8:52 PM 62.1 °F - 44.1 °F 52% 29.93 in 10.0 mi South 16.1 mph - N/A   Clear
9:52 PM 62.1 °F - 44.1 °F 52% 29.92 in 10.0 mi South 18.4 mph - N/A   Clear
10:52 PM 61.0 °F - 44.1 °F 54% 29.89 in 10.0 mi South 17.3 mph - N/A   Clear
11:52 PM 59.0 °F - 44.1 °F 58% 29.87 in 10.0 mi South 13.8 mph - N/A   Clear